ONEWEB-0033, 45142

Orbit data source: Space-Track

ONEWEB-0033, 45142 is a payload satellite owned by One Web (UK) in LEO that was launched on Thu, 06 Feb 2020 UTC via a SOYUZ-2-1B launch vehicle from the Tyuratam Missile And Space Complex (TTMTR). Payload-class satellites include a variety of spacecraft equipped with specific instruments for various scientific and technological missions. These include communications satellites like Starlink; space stations such as the ISS; scientific satellites like the Hubble; Earth observation satellites from companies like Planet Labs, Umbra, and HawkEye 360; GPS; miniature CubeSats for education and research; and military/defense satellites.

Loading next visibility...
Identifier
45142, 2020-008M
Orbit
LEO
Country
Flag of UKUK
Related business
Manufacturer
One Web
Mission
Operational Commercial Communications
Bus & Motor
ARROW, Unknown motor
Mass
148 kg wet, ~140 kg dry
Launch date (UTC)
2020-02-06 (6 years ago)
Launch vehicle
SOYUZ-2-1B
Launch site
Tyuratam Missile And Space Complex (TTMTR)
Object type
Payload
Rocket body
Debris
Shape & HBR
Trap Box + 2 Pan, 6.7 m
Radar Cross Section
3.464 m², Large (>1 m²)

Expand to show TLE details & history
Last TLE update: 21 hours ago

TLE from 21 hours ago
0 ONEWEB-0033
1 45142U 20008M   25287.18168933 -.00000262  00000-0 -78786-3 0  9990
2 45142  87.8755  85.3322 0001706  96.8280 263.3042 13.10375087275995
Epoch: 2025-10-14T04:21Z
TLE epoch observation values (Epoch: 2025-10-14T04:21:37.958Z)
Latitude
0.00005°
Longitude
-3.04975°
Altitude
1,224.747 km
Speed
7.242 km/s
True Right ascension
05h 41m 19s
True Declination
0° 00' 00"
Sunlit
Object was in daylight at epoch
Visualization orbit readout
Latitude
Unknown
Longitude
Unknown
Altitude
Unknown
Speed
Unknown
Apparent Right ascension
Unknown
Apparent Declination
Unknown
Sunlit
N/A
Visualization observer readout
Local Sidereal Time
19:53:52
Azimuth
Unknown
Elevation
Unknown
Doppler factor
Unknown
Orbital elements
Apogee altitude
1,220.124 km
Perigee altitude
1,217.532 km
Semi-major axis
7,596.965 km
Eccentricity
0.00017
Inclination
87.8755°
RAAN
85.3322°
Arg. of periapsis
96.828°
True anomaly
263.28478°
Mean anomaly
263.3042°
Eccentric anomaly
263.29449°
Mean motion
3.2778 °/min
Orbital period
109.83 mins
BSTAR
-0.00078786
Loading maneuver chart data...
Computing Atmospheric mass density...
Loading historical data...
Loading historical data...
Loading historical data...
Loading historical data...
Loading historical data...
Loading historical data...
Loading historical data...

Documentation

Showing up to 5 results
|